Location: Unspecified
(0.0000°N, 0.0000°E)
Time: 18:49:03
(UTC+00:00)

SR - Pass Details

Date: 19 November 2019
Orbit: 573 x 882 km, 66.7° (Epoch: 06 December)

Event Time Altitude Azimuth Distance (km) Brightness Sun altitude
Rises 11:54:44 0° 159° (SSE) 2,893 ? 70.4°
Reaches altitude 10° 11:59:36 10° 112° (ESE) 2,071 ? 70.2°
Maximum altitude 11:59:54 10° 108° (ESE) 2,073 ? 70.2°
Drops below altitude 10° 12:00:12 10° 105° (ESE) 2,082 ? 70.2°
Sets 12:05:20 0° 59° (ENE) 3,102 ? 69.9°
